Hourly Weather Roundup
Issued by NWS Central Illinois

Home | Current Version | Previous Version | Text Only | Print | Product List | Glossary On
Versions: 1 2 3 4 5 6 7 8 9 10 11 12 13 14 15 16 17 18 19 20 21 22 23 24 25 26 27 28 29 30 31 32 33 34 35 36 37 38 39 40 41 42 43 44 45 46 47 48 49 50
000
NZUS43 KILX 200410
HWRILX

AREA WEATHER ROUNDUP
NATIONAL WEATHER SERVICE, LINCOLN IL
1100 PM CDT FRI SEP 19 2014


CITY           SKY/WX    TMP DP  RH WIND       PRES   REMARKS
BLOOMINGTON    CLEAR     61  53  74 S13       30.02F
CHAMPAIGN      CLEAR     60  52  74 SE8       30.04F
DECATUR        CLEAR     58  53  84 S3        30.04S
FLORA          CLEAR     56  55  97 CALM      30.05S
GALESBURG      CLEAR     61  57  86 S7        29.96S
JACKSONVILLE   CLEAR     67  59  76 S7        30.01S
LACON          CLEAR     61  53  73 S6        29.97F
LAWRENCEVILLE  CLEAR     57  55  93 NE3       30.06R
LITCHFIELD     CLEAR     59  56  89 SE5       30.02F
$$


CITY           SKY/WX    TMP DP  RH WIND       PRES   REMARKS
LINCOLN        CLEAR     59  54  83 CALM      29.99F
MACOMB         CLEAR     62  57  85 S6        29.99S
MATTOON        CLEAR     58  52  80 SE6       30.04S
MT CARMEL AP   CLEAR     57  54  88 CALM      30.05S
OLNEY-NOBLE AP CLEAR     54  54 100 CALM      30.05S
PARIS          CLEAR     50  50  99 CALM      30.06S
PEORIA         CLEAR     65  54  67 S12       29.98S
PONTIAC        CLEAR     61  52  72 S8        29.99F
RANTOUL        CLEAR     56  50  79 CALM      30.05S
ROBINSON       CLEAR     54  54  97 CALM      30.06S
SPRINGFIELD    CLEAR     65  55  70 S7        30.01S
TAYLORVILLE    CLEAR     59  54  82 SE7       30.02F
$$

...REGIONAL REPORTS...


CITY           SKY/WX    TMP DP  RH WIND       PRES   REMARKS
CHICAGO O`HARE PTCLDY    66  47  50 S14       29.95S
KANKAKEE       CLEAR     59  51  77 S9        30.01F
MOLINE         CLEAR     67  55  65 S14       29.92S
MOUNT VERNON   CLEAR     55  50  82 CALM      30.05S
PITTSFIELD     CLEAR     61  57  87 CALM      30.01S
QUINCY         CLEAR     65  58  78 S8        29.98S
ROCKFORD       CLEAR     64  51  62 S14       29.93F
$$


CITY           SKY/WX    TMP DP  RH WIND       PRES   REMARKS
BURLINGTON     CLEAR     65  58  78 S9        29.95S
CEDAR RAPIDS   CLEAR     65  59  81 S13       29.87F
DES MOINES     PTCLDY    70  66  87 S16       29.83F
KIRKSVILLE     CLEAR     66  61  84 S6        29.97S
OTTUMWA        CLEAR     67  61  81 S10       29.89F
ST LOUIS       PTCLDY    71  58  63 S7        30.02S
$$


CITY           SKY/WX    TMP DP  RH WIND       PRES   REMARKS
TERRE HAUTE    CLEAR     54  51  90 CALM      30.05S
EVANSVILLE     CLEAR     61  57  87 CALM      30.06R
INDIANAPOLIS   PTCLDY    60  50  69 SE5       30.06F
LAFAYETTE      CLEAR     52  49  89 CALM      30.05F
MADISON        PTCLDY    67  53  61 S13G22    29.86S
MILWAUKEE      PTCLDY    64  47  53 S12       29.89F
$$




USA.gov is the U.S. government's official web portal to all federal, state and local government web resources and services.